Wind from 002 at 0 knots gusting 3

Air temperature 5.0° C
Dewpoint 2.5° C

Last reported at 2014-Apr-16 21:45 UTC.
Time now 2014-Apr-16 22:22 UTC

Location: N 59°30' E 006°32'.
View on Google Maps.

See reports from other nearby stations

Tides Stations Pressure Air Temp Water Temp Dewpoint Dewpoint depression Visibility Wind Speed Wind Dir Waves Ship positions

  
sailing weather and tide predictions

LA3HOA-1 Suldalsosen NO weather

date/time (UTC)wind fromknots sea level pressurealtimeterstation pressurevisibilityair tempwater tempwave heightnotes
2014-Apr-16 21:45 002 0 gusting 3 5.0
2014-Apr-16 21:40 343 0 gusting 3 5.6
2014-Apr-16 21:35 010 1 gusting 3 5.6
2014-Apr-16 21:30 009 0 gusting 3 5.6
2014-Apr-16 21:25 354 6.1
2014-Apr-16 21:20 351 2 gusting 3 6.1
2014-Apr-16 21:15 357 1 gusting 3 6.1
2014-Apr-16 21:10 358 1 gusting 3 6.1
2014-Apr-16 21:05 356 1 gusting 3 6.7
2014-Apr-16 21:00 352 1 gusting 3 6.7
2014-Apr-16 20:55 003 1 gusting 3 6.7
2014-Apr-16 20:50 350 0 gusting 3 6.7
2014-Apr-16 20:45 309 1 gusting 3 7.2
2014-Apr-16 20:40 303 0 gusting 4 7.2
2014-Apr-16 20:35 305 1 gusting 4 7.2
2014-Apr-16 20:30 312 1 gusting 6 7.8
2014-Apr-16 20:25 318 1 gusting 6 7.8
2014-Apr-16 20:20 307 1 gusting 2 7.8
2014-Apr-16 20:15 284 0 gusting 2 7.8
2014-Apr-16 20:10 185 0 gusting 2 7.8
2014-Apr-16 20:05 212 1 gusting 3 7.8
2014-Apr-16 20:00 257 1 gusting 3 7.8
2014-Apr-16 19:55 286 0 gusting 3 8.3
2014-Apr-16 19:50 024 1 gusting 3 8.3
2014-Apr-16 19:45 171 8.3
2014-Apr-16 19:40 252 1 gusting 3 8.3
2014-Apr-16 19:35 241 8.3
2014-Apr-16 19:30 248 0 gusting 5 8.3
2014-Apr-16 19:25 283 0 gusting 5 8.3
2014-Apr-16 19:20 305 8.3
2014-Apr-16 19:15 276 1 gusting 6 8.9
2014-Apr-16 19:10 265 1 gusting 6 8.9
2014-Apr-16 19:05 288 1 gusting 6 8.9
2014-Apr-16 18:55 301 3 gusting 6 8.9
2014-Apr-16 18:50 308 1 gusting 9 8.9
2014-Apr-16 18:45 303 1 gusting 9 8.9
2014-Apr-16 18:40 285 3 gusting 8 8.9
2014-Apr-16 18:35 275 3 gusting 7 8.9
2014-Apr-16 18:30 275 3 gusting 8 8.9
2014-Apr-16 18:25 275 3 gusting 8 8.9
2014-Apr-16 18:20 273 3 gusting 9 8.9
2014-Apr-16 18:15 271 4 gusting 9 8.9
2014-Apr-16 18:10 270 6 gusting 9 8.3
2014-Apr-16 18:05 272 2 gusting 6 7.8
2014-Apr-16 18:00 275 2 gusting 6 7.8
2014-Apr-16 17:55 260 0 gusting 6 6.7
2014-Apr-16 17:50 237 2 gusting 6 6.7
2014-Apr-16 17:45 221 0 gusting 4 6.7
2014-Apr-16 17:40 213 0 gusting 3 6.7
2014-Apr-16 17:35 248 1 gusting 3 6.7
2014-Apr-16 17:30 168 2 gusting 3 6.7
2014-Apr-16 17:25 094 1 gusting 3 6.7
2014-Apr-16 17:20 101 1 gusting 5 7.2
2014-Apr-16 17:15 331 1 gusting 5 7.2
2014-Apr-16 17:10 316 1 gusting 4 7.2
2014-Apr-16 17:05 314 1 gusting 4 6.7
2014-Apr-16 17:00 035 1 gusting 4 6.7
2014-Apr-16 16:55 055 2 gusting 4 7.2
2014-Apr-16 16:50 170 3 gusting 4 7.2
2014-Apr-16 16:45 234 7.2
2014-Apr-16 16:40 150 1 gusting 5 7.2
2014-Apr-16 16:35 295 0 gusting 5 7.2
2014-Apr-16 16:30 333 1 gusting 3 7.8
2014-Apr-16 16:25 035 1 gusting 3 7.8
2014-Apr-16 16:20 217 7.8
2014-Apr-16 16:15 166 0 gusting 3 7.8
2014-Apr-16 16:10 135 7.8
2014-Apr-16 16:05 146 0 gusting 3 7.8
2014-Apr-16 16:00 147 0 gusting 5 7.8
2014-Apr-16 15:55 139 1 gusting 6 7.8
2014-Apr-16 15:50 132 2 gusting 6 7.8
2014-Apr-16 15:45 102 1 gusting 6 7.8
2014-Apr-16 15:40 112 3 gusting 6 7.8
2014-Apr-16 15:35 129 3 gusting 6 7.8
2014-Apr-16 15:30 129 3 gusting 6 7.8
2014-Apr-16 15:25 150 1 gusting 6 7.8
2014-Apr-16 15:20 136 0 gusting 6 7.2
2014-Apr-16 15:15 116 3 gusting 6 7.2
2014-Apr-16 15:10 095 2 gusting 4 7.2
2014-Apr-16 15:05 105 2 gusting 3 7.2
2014-Apr-16 15:00 137 2 gusting 3 7.2
2014-Apr-16 14:55 118 7.2
2014-Apr-16 14:50 105 0 gusting 5 6.7
2014-Apr-16 14:45 123 1 gusting 6 6.7
2014-Apr-16 14:40 134 2 gusting 6 6.7
2014-Apr-16 14:35 159 2 gusting 3 7.2
2014-Apr-16 14:30 156 0 gusting 5 7.2
2014-Apr-16 14:25 147 1 gusting 5 7.2
2014-Apr-16 14:20 136 0 gusting 3 7.2
2014-Apr-16 14:15 130 1 gusting 3 7.2
2014-Apr-16 14:10 135 1 gusting 3 7.2
2014-Apr-16 14:05 129 2 gusting 3 7.2
2014-Apr-16 14:00 133 2 gusting 3 7.2
2014-Apr-16 13:55 173 1 gusting 3 7.2
2014-Apr-16 13:50 161 1 gusting 3 7.2
2014-Apr-16 13:45 128 7.8
2014-Apr-16 13:40 127 0 gusting 3 7.2
2014-Apr-16 13:35 132 1 gusting 3 7.2
2014-Apr-16 13:30 130 1 gusting 4 6.7
2014-Apr-16 13:25 137 2 gusting 4 6.7
2014-Apr-16 13:20 146 3 gusting 4 7.2
2014-Apr-16 13:15 126 1 gusting 3 7.2
2014-Apr-16 13:10 127 1 gusting 3 7.2
2014-Apr-16 13:05 135 2 gusting 3 7.2
2014-Apr-16 13:00 137 2 gusting 3 7.2
2014-Apr-16 12:55 123 1 gusting 3 7.2
2014-Apr-16 12:50 118 1 gusting 2 7.2
2014-Apr-16 12:45 141 1 gusting 3 7.2
2014-Apr-16 12:40 159 0 gusting 3 7.2
2014-Apr-16 12:35 155 1 gusting 3 7.8
2014-Apr-16 12:30 142 0 gusting 3 7.8
2014-Apr-16 12:25 143 0 gusting 3 7.8
2014-Apr-16 12:20 155 1 gusting 3 7.8
2014-Apr-16 12:15 151 1 gusting 3 7.8
2014-Apr-16 12:10 146 0 gusting 3 7.8
2014-Apr-16 12:05 168 0 gusting 2 8.3
2014-Apr-16 12:00 161 0 gusting 2 8.3
2014-Apr-16 11:55 145 8.9
2014-Apr-16 11:50 165 1 gusting 2 9.4
2014-Apr-16 11:45 163 0 gusting 2 9.4
2014-Apr-16 11:40 148 1 gusting 2 9.4
2014-Apr-16 11:35 165 0 gusting 2 9.4
2014-Apr-16 11:30 191 1 gusting 2 9.4
2014-Apr-16 11:25 173 0 gusting 2 8.9
2014-Apr-16 11:20 154 0 gusting 2 8.3
2014-Apr-16 11:15 145 8.3
2014-Apr-16 11:10 140 0 gusting 3 7.8
2014-Apr-16 11:05 145 0 gusting 3 7.8
2014-Apr-16 11:00 151 1 gusting 3 7.8
2014-Apr-16 10:55 145 1 gusting 3 7.2
2014-Apr-16 10:50 132 1 gusting 3 6.7
2014-Apr-16 10:45 121 1 gusting 3 6.7
2014-Apr-16 10:40 112 1 gusting 3 6.7
2014-Apr-16 10:35 114 1 gusting 3 6.7
2014-Apr-16 10:30 142 1 gusting 3 6.7
2014-Apr-16 10:25 155 0 gusting 1 6.7
2014-Apr-16 10:20 149 6.7
2014-Apr-16 10:15 165 6.7
2014-Apr-16 10:10 181 0 gusting 3 6.7
2014-Apr-16 10:05 179 0 gusting 3 6.7
2014-Apr-16 10:00 155 0 gusting 5 6.7
2014-Apr-16 09:55 153 1 gusting 5 6.7
2014-Apr-16 09:50 147 2 gusting 5 6.1
2014-Apr-16 09:45 144 2 gusting 5 6.7
2014-Apr-16 09:40 157 2 gusting 3 6.7
2014-Apr-16 09:35 153 2 gusting 4 6.7
2014-Apr-16 09:30 156 1 gusting 6 6.7
2014-Apr-16 09:25 154 1 gusting 6 6.7
2014-Apr-16 09:20 144 3 gusting 6 6.7
2014-Apr-16 09:15 153 3 gusting 6 6.1
2014-Apr-16 09:10 214 1 gusting 5 6.1
2014-Apr-16 09:05 247 0 gusting 5 6.1
2014-Apr-16 09:00 189 0 gusting 6 6.1
2014-Apr-16 08:55 160 3 gusting 6 6.1
2014-Apr-16 08:50 156 1 gusting 3 6.1
2014-Apr-16 08:45 287 0 gusting 5 5.6
2014-Apr-16 08:40 184 1 gusting 5 5.6
2014-Apr-16 08:35 151 1 gusting 4 5.6
2014-Apr-16 08:30 133 2 gusting 3 6.1
2014-Apr-16 08:25 105 1 gusting 3 6.1
2014-Apr-16 08:20 032 6.1
2014-Apr-16 08:15 211 0 gusting 3 6.1
2014-Apr-16 08:10 153 0 gusting 3 6.1
2014-Apr-16 08:05 160 0 gusting 3 5.6
2014-Apr-16 08:00 201 0 gusting 3 5.6
2014-Apr-16 07:55 209 3 gusting 3 5.6
2014-Apr-16 07:50 163 1 gusting 3 5.6
2014-Apr-16 07:45 155 1 gusting 2 5.0
2014-Apr-16 07:40 164 1 gusting 2 4.4
2014-Apr-16 07:35 195 1 gusting 2 3.3
2014-Apr-16 07:30 184 3.3
2014-Apr-16 07:25 178 1 gusting 1 3.3
2014-Apr-16 07:20 181 0 gusting 2 3.3
2014-Apr-16 07:15 133 0 gusting 2 2.8
2014-Apr-16 07:10 097 0 gusting 2 2.2
2014-Apr-16 07:05 085 1 gusting 3 2.2
2014-Apr-16 07:00 102 1 gusting 3 2.2
2014-Apr-16 06:55 147 0 gusting 1 1.7
2014-Apr-16 06:50 208 0 gusting 2 1.7
2014-Apr-16 06:45 165 0 gusting 2 1.7
2014-Apr-16 06:40 134 0 gusting 2 1.7
2014-Apr-16 06:35 109 1.7
2014-Apr-16 06:30 175 1.7
2014-Apr-16 06:25 205 1.1
2014-Apr-16 06:20 195 1.1
2014-Apr-16 06:15 141 1.1
2014-Apr-16 06:10 101 0 gusting 1 1.1
2014-Apr-16 06:05 099 1 gusting 2 1.1
2014-Apr-16 06:00 125 1 gusting 2 1.1
2014-Apr-16 05:55 177 1.1
2014-Apr-16 05:50 220 1.1
2014-Apr-16 05:45 201 0 gusting 1 1.1
2014-Apr-16 05:40 160 1.1
2014-Apr-16 05:35 161 0 gusting 2 1.1
2014-Apr-16 05:30 107 1.1
2014-Apr-16 05:25 106 0 gusting 3 1.1
2014-Apr-16 05:20 060 1 gusting 3 0.6
2014-Apr-16 05:15 032 0 gusting 3 0.6
2014-Apr-16 05:10 147 0 gusting 3 0.6
2014-Apr-16 05:05 192 0.6
2014-Apr-16 05:00 108 0.6
2014-Apr-16 04:55 032 0 gusting 1 0.6
2014-Apr-16 04:50 292 0 gusting 1 -0.0
2014-Apr-16 04:45 352 -0.0
2014-Apr-16 04:40 002 -0.0
2014-Apr-16 04:35 023 1 gusting 1 -0.0
2014-Apr-16 04:30 039 -0.0
2014-Apr-16 04:25 279 -0.0
2014-Apr-16 04:15 356 0.6
2014-Apr-16 04:10 001 0 gusting 1 0.6
2014-Apr-16 04:05 001 0 gusting 1 0.6
2014-Apr-16 04:00 001 0 gusting 1 0.6
2014-Apr-16 03:55 322 0 gusting 1 0.6
2014-Apr-16 03:50 308 0.6
2014-Apr-16 03:45 354 0 gusting 1 0.6
2014-Apr-16 03:40 352 0 gusting 1 1.1
2014-Apr-16 03:35 356 1.1
2014-Apr-16 03:30 001 1 gusting 2 1.1
2014-Apr-16 03:25 003 1 gusting 1 1.1
2014-Apr-16 03:20 010 0 gusting 1 1.1
2014-Apr-16 03:15 004 0 gusting 1 1.1
2014-Apr-16 03:10 359 1.1
2014-Apr-16 03:05 352 1 gusting 1 1.7
2014-Apr-16 03:00 332 1 gusting 1 1.7
2014-Apr-16 02:55 277 1 gusting 2 1.7
2014-Apr-16 02:50 273 1 gusting 2 1.7
2014-Apr-16 02:45 043 1 gusting 2 1.7
2014-Apr-16 02:40 065 0 gusting 3 1.7
2014-Apr-16 02:35 097 0 gusting 3 1.7
2014-Apr-16 02:30 102 1 gusting 3 1.7
2014-Apr-16 02:25 047 1.7
2014-Apr-16 02:20 004 0 gusting 1 1.7
2014-Apr-16 02:15 001 1 gusting 1 1.7
2014-Apr-16 02:10 001 1 gusting 1 1.7
2014-Apr-16 02:05 001 1.7
2014-Apr-16 02:00 001 1.7
2014-Apr-16 01:55 001 1 gusting 2 1.7
2014-Apr-16 01:50 001 1 gusting 2 2.2
2014-Apr-16 01:45 001 0 gusting 1 2.2
2014-Apr-16 01:40 001 0 gusting 1 2.2
2014-Apr-16 01:35 001 0 gusting 1 2.2
2014-Apr-16 01:30 005 2.2
2014-Apr-16 01:25 014 1 gusting 2 2.8
2014-Apr-16 01:20 010 1 gusting 2 2.8
2014-Apr-16 01:15 346 1 gusting 2 2.8
2014-Apr-16 01:10 323 1 gusting 2 2.8
2014-Apr-16 01:05 306 1 gusting 2 3.3
2014-Apr-16 01:00 340 1 gusting 2 3.3
2014-Apr-16 00:55 062 3.3
2014-Apr-16 00:50 083 0 gusting 3 3.9
2014-Apr-16 00:45 094 0 gusting 3 3.9
2014-Apr-16 00:40 101 2 gusting 3 3.9
2014-Apr-16 00:35 110 1 gusting 2 3.9
2014-Apr-16 00:30 122 1 gusting 3 3.9
2014-Apr-16 00:25 101 1 gusting 3 3.9
2014-Apr-16 00:20 029 0 gusting 1 3.9
2014-Apr-16 00:15 012 1 gusting 1 3.9
2014-Apr-16 00:10 001 0 gusting 1 3.9
2014-Apr-16 00:05 345 3.9
2014-Apr-16 00:00 242 3.9
2014-Apr-15 23:55 181 3.9
2014-Apr-15 23:50 209 3.9
2014-Apr-15 23:45 210 3.9
2014-Apr-15 23:40 001 3.9
2014-Apr-15 23:35 001 3.9
2014-Apr-15 23:30 354 4.4
2014-Apr-15 23:25 305 0 gusting 1 4.4
2014-Apr-15 23:20 351 0 gusting 2 4.4
2014-Apr-15 23:15 080 4.4
2014-Apr-15 23:10 121 1 gusting 2 3.9
2014-Apr-15 23:05 128 1 gusting 3 4.4
2014-Apr-15 23:00 103 1 gusting 3 4.4
2014-Apr-15 22:55 085 0 gusting 3 4.4
2014-Apr-15 22:50 090 4.4
2014-Apr-15 22:45 096 1 gusting 3 4.4
2014-Apr-15 22:40 067 1 gusting 2 3.9
2014-Apr-15 22:35 356 0 gusting 1 3.9
2014-Apr-15 22:30 337 0 gusting 1 4.4
2014-Apr-15 22:25 333 0 gusting 1 4.4
2014-Apr-15 22:20 001 4.4
2014-Apr-15 22:15 001 4.4
2014-Apr-15 22:10 001 4.4
2014-Apr-15 22:05 355 0 gusting 1 4.4
2014-Apr-15 22:00 338 0 gusting 1 4.4
2014-Apr-15 21:55 005 4.4
2014-Apr-15 21:50 049 0 gusting 3 4.4
2014-Apr-15 21:45 065 0 gusting 3 4.4
2014-Apr-15 21:40 081 1 gusting 3 4.4
2014-Apr-15 21:35 114 1 gusting 2 4.4
2014-Apr-15 21:30 131 0 gusting 3 4.4
2014-Apr-15 21:25 121 1 gusting 4 4.4
2014-Apr-15 21:20 099 2 gusting 4 4.4
2014-Apr-15 21:15 098 2 gusting 3 4.4
2014-Apr-15 21:10 143 2 gusting 3 4.4
2014-Apr-15 21:05 196 4.4
2014-Apr-15 21:00 176 4.4
2014-Apr-15 20:55 095 5.0
2014-Apr-15 20:50 100 0 gusting 3 5.0
2014-Apr-15 20:45 123 1 gusting 3 5.0
2014-Apr-15 20:40 136 1 gusting 3 5.0
2014-Apr-15 20:35 104 1 gusting 2 5.0
2014-Apr-15 20:30 025 0 gusting 1 5.0
2014-Apr-15 20:25 114 5.0
2014-Apr-15 20:20 049 0 gusting 2 5.0
2014-Apr-15 20:15 028 5.0
2014-Apr-15 20:10 082 0 gusting 1 5.0
2014-Apr-15 20:05 092 1 gusting 3 5.6
2014-Apr-15 20:00 097 1 gusting 3 5.6
2014-Apr-15 19:55 091 1 gusting 3 5.6
2014-Apr-15 19:50 086 1 gusting 3 5.6
2014-Apr-15 19:45 088 1 gusting 3 6.1
2014-Apr-15 19:40 088 1 gusting 3 6.1
2014-Apr-15 19:35 090 2 gusting 3 6.1
2014-Apr-15 19:30 089 1 gusting 3 6.1
2014-Apr-15 19:25 090 0 gusting 2 6.1
2014-Apr-15 19:20 097 0 gusting 3 6.1
2014-Apr-15 19:15 114 1 gusting 3 6.1
2014-Apr-15 19:10 131 1 gusting 3 6.1
2014-Apr-15 19:05 126 1 gusting 3 6.7
2014-Apr-15 19:00 115 1 gusting 3 6.7
2014-Apr-15 18:55 114 1 gusting 2 6.7
2014-Apr-15 18:50 118 1 gusting 3 6.7
2014-Apr-15 18:45 124 1 gusting 3 7.2
2014-Apr-15 18:40 115 1 gusting 3 7.2
2014-Apr-15 18:35 090 2 gusting 3 7.2
2014-Apr-15 18:30 095 0 gusting 2 7.8
2014-Apr-15 18:25 093 1 gusting 2 7.8
2014-Apr-15 18:20 069 1 gusting 2 7.8
2014-Apr-15 18:15 031 0 gusting 2 7.8
2014-Apr-15 18:10 010 0 gusting 1 7.8
2014-Apr-15 18:05 023 8.3
2014-Apr-15 18:00 033 8.3
2014-Apr-15 17:55 068 0 gusting 2 8.3
2014-Apr-15 17:50 086 8.9
2014-Apr-15 17:45 099 0 gusting 1 7.8
2014-Apr-15 17:40 140 0 gusting 1 9.4
2014-Apr-15 17:35 148 0 gusting 3 9.4
2014-Apr-15 17:30 124 0 gusting 3 9.4
2014-Apr-15 17:25 091 1 gusting 3 9.4
2014-Apr-15 17:20 101 0 gusting 3 9.4
2014-Apr-15 17:15 123 1 gusting 3 10.0
2014-Apr-15 17:10 144 1 gusting 3 10.0
2014-Apr-15 17:05 175 10.6
2014-Apr-15 17:00 169 10.6
2014-Apr-15 16:55 146 10.6
2014-Apr-15 16:50 132 1 gusting 5 10.6
2014-Apr-15 16:45 140 1 gusting 5 11.7
2014-Apr-15 16:40 144 3 gusting 5 12.2
2014-Apr-15 16:35 158 0 gusting 4 12.8
2014-Apr-15 16:30 172 1 gusting 4 13.3
2014-Apr-15 16:25 176 1 gusting 3 13.3
2014-Apr-15 16:20 175 1 gusting 4 13.3
2014-Apr-15 16:15 169 1 gusting 4 12.8
2014-Apr-15 16:10 173 1 gusting 4 12.8
2014-Apr-15 16:05 181 2 gusting 4 12.8
2014-Apr-15 16:00 164 2 gusting 6 12.8
2014-Apr-15 15:55 168 1 gusting 6 12.2
2014-Apr-15 15:50 176 4 gusting 6 12.2
2014-Apr-15 15:45 175 1 gusting 3 12.8
2014-Apr-15 15:40 181 1 gusting 3 13.3
2014-Apr-15 15:35 179 1 gusting 3 12.8
2014-Apr-15 15:30 147 0 gusting 7 12.8
2014-Apr-15 15:25 146 1 gusting 7 12.2
2014-Apr-15 15:20 156 1 gusting 6 12.2
2014-Apr-15 15:15 136 1 gusting 6 12.2
2014-Apr-15 15:10 050 3 gusting 4 12.8
2014-Apr-15 15:05 045 3 gusting 6 11.7
2014-Apr-15 15:00 049 3 gusting 6 11.7
2014-Apr-15 14:55 173 2 gusting 6 12.8
2014-Apr-15 14:50 207 0 gusting 7 12.8
2014-Apr-15 14:45 172 1 gusting 7 13.3
2014-Apr-15 14:40 317 0 gusting 6 13.3
2014-Apr-15 14:35 306 0 gusting 6 12.8
2014-Apr-15 14:30 291 2 gusting 6 12.8
2014-Apr-15 14:25 294 0 gusting 6 12.8
2014-Apr-15 14:20 147 2 gusting 4 12.8
2014-Apr-15 14:15 184 0 gusting 5 12.2
2014-Apr-15 14:10 193 2 gusting 5 12.2
2014-Apr-15 14:05 144 0 gusting 6 11.7
2014-Apr-15 14:00 103 0 gusting 8 11.7
2014-Apr-15 13:55 093 1 gusting 8 11.7
2014-Apr-15 13:50 110 4 gusting 7 12.2
2014-Apr-15 13:45 117 2 gusting 6 12.2
2014-Apr-15 13:40 236 1 gusting 9 11.7
2014-Apr-15 13:35 242 1 gusting 12 11.7
2014-Apr-15 13:30 150 5 gusting 12 11.7
2014-Apr-15 13:25 104 3 gusting 6 11.7
2014-Apr-15 13:20 004 1 gusting 6 11.7
2014-Apr-15 13:15 028 1 gusting 6 11.7
2014-Apr-15 13:10 031 2 gusting 10 11.7
2014-Apr-15 13:05 351 6 gusting 10 11.1
2014-Apr-15 13:00 171 3 gusting 9 12.2
2014-Apr-15 12:55 144 1 gusting 6 12.2
2014-Apr-15 12:50 142 2 gusting 8 12.2
2014-Apr-15 12:45 169 0 gusting 8 11.7
2014-Apr-15 12:40 115 6 gusting 8 11.7
2014-Apr-15 12:35 028 1 gusting 6 11.7
2014-Apr-15 12:30 120 1 gusting 6 11.7
2014-Apr-15 12:25 086 2 gusting 6 11.7
2014-Apr-15 12:20 077 2 gusting 6 11.7
2014-Apr-15 12:15 255 1 gusting 6 11.7
2014-Apr-15 12:10 264 2 gusting 5 11.7
2014-Apr-15 12:05 189 0 gusting 3 12.2
2014-Apr-15 12:00 212 1 gusting 9 11.7
2014-Apr-15 11:55 198 1 gusting 9 11.1
2014-Apr-15 11:50 167 5 gusting 9 10.6
2014-Apr-15 11:45 148 6 gusting 9 10.6
2014-Apr-15 11:40 135 1 gusting 9 10.6
2014-Apr-15 11:35 130 5 gusting 9 10.6
2014-Apr-15 11:30 127 2 gusting 9 10.0
2014-Apr-15 11:25 280 3 gusting 6 10.6
2014-Apr-15 11:20 104 1 gusting 9 10.6
2014-Apr-15 11:15 081 3 gusting 9 10.6
2014-Apr-15 11:10 174 4 gusting 9 10.6
2014-Apr-15 11:05 183 1 gusting 5 10.6
2014-Apr-15 11:00 179 3 gusting 5 10.6
2014-Apr-15 10:55 206 1 gusting 6 10.6
2014-Apr-15 10:50 206 1 gusting 7 10.6
2014-Apr-15 10:45 137 2 gusting 7 10.0
2014-Apr-15 10:40 108 1 gusting 7 10.0
2014-Apr-15 10:35 136 3 gusting 12 10.0
2014-Apr-15 10:30 151 3 gusting 12 9.4
2014-Apr-15 10:25 129 3 gusting 14 10.0
2014-Apr-15 10:20 060 3 gusting 14 10.6
2014-Apr-15 10:15 103 9 gusting 14 10.6
2014-Apr-15 10:10 122 2 gusting 12 11.1
2014-Apr-15 10:05 147 2 gusting 9 10.6
2014-Apr-15 10:00 165 2 gusting 9 10.6
2014-Apr-15 09:55 186 3 gusting 5 11.1
2014-Apr-15 09:50 186 2 gusting 5 11.7
2014-Apr-15 09:45 194 0 gusting 6 11.1
2014-Apr-15 09:40 213 2 gusting 6 11.7
2014-Apr-15 09:35 201 2 gusting 6 11.1
2014-Apr-15 09:30 174 4 gusting 6 11.1
2014-Apr-15 09:25 165 1 gusting 5 11.1
2014-Apr-15 09:20 167 1 gusting 5 10.6
2014-Apr-15 09:15 182 3 gusting 5 10.0
2014-Apr-15 09:10 195 1 gusting 5 10.0
2014-Apr-15 09:05 181 3 gusting 5 10.0
2014-Apr-15 09:00 155 3 gusting 6 10.0
2014-Apr-15 08:55 162 2 gusting 6 9.4
2014-Apr-15 08:50 172 2 gusting 6 10.0
2014-Apr-15 08:45 169 2 gusting 6 9.4
2014-Apr-15 08:40 163 1 gusting 6 9.4
2014-Apr-15 08:35 157 1 gusting 6 8.9
2014-Apr-15 08:30 162 5 gusting 6 10.0
2014-Apr-15 08:25 146 1 gusting 5 10.0
2014-Apr-15 08:20 153 1 gusting 5 9.4
2014-Apr-15 08:15 178 2 gusting 5 10.0
2014-Apr-15 08:10 183 1 gusting 5 10.0
2014-Apr-15 08:05 161 2 gusting 6 8.9
2014-Apr-15 08:00 155 2 gusting 6 8.9
2014-Apr-15 07:55 175 3 gusting 7 8.9
2014-Apr-15 07:50 166 2 gusting 7 8.9
2014-Apr-15 07:45 184 1 gusting 5 9.4
2014-Apr-15 07:40 190 1 gusting 5 10.0
2014-Apr-15 07:35 204 0 gusting 2 10.6
2014-Apr-15 07:30 261 0 gusting 3 10.0
2014-Apr-15 07:25 253 1 gusting 3 9.4
2014-Apr-15 07:20 116 1 gusting 2 10.0
2014-Apr-15 07:15 148 0 gusting 3 10.0
2014-Apr-15 07:10 181 0 gusting 3 10.0
2014-Apr-15 07:05 184 1 gusting 3 8.9
2014-Apr-15 07:00 105 1 gusting 3 8.9
2014-Apr-15 06:55 055 8.3
2014-Apr-15 06:50 040 0 gusting 1 7.8
2014-Apr-15 06:45 093 6.7
2014-Apr-15 06:40 121 1 gusting 3 5.0
2014-Apr-15 06:35 025 3.3
2014-Apr-15 06:30 011 1.7
2014-Apr-15 06:25 041 1 gusting 4 1.7
2014-Apr-15 06:20 060 1 gusting 4 1.1
2014-Apr-15 06:15 342 1 gusting 3 1.1
2014-Apr-15 06:10 325 0 gusting 1 1.1
2014-Apr-15 06:05 325 0 gusting 1 1.1
2014-Apr-15 06:00 307 0 gusting 2 1.1
2014-Apr-15 05:55 314 0 gusting 3 1.1
2014-Apr-15 05:50 354 1 gusting 5 1.1
2014-Apr-15 05:45 357 1 gusting 5 1.1
2014-Apr-15 05:40 008 3 gusting 4 0.6
2014-Apr-15 05:35 026 1 gusting 3 0.6
2014-Apr-15 05:30 079 2 gusting 5 0.6
2014-Apr-15 05:25 030 1.1
2014-Apr-15 05:20 353 1 gusting 3 0.6
2014-Apr-15 05:15 358 0.6
2014-Apr-15 05:10 355 1 gusting 2 0.6
2014-Apr-15 05:05 001 0 gusting 3 0.6
2014-Apr-15 05:00 347 0 gusting 3 0.6
2014-Apr-15 04:55 345 2 gusting 3 0.6
2014-Apr-15 04:50 006 0 gusting 3 1.1
2014-Apr-15 04:45 006 0 gusting 3 1.1
2014-Apr-15 04:40 002 2 gusting 4 1.1
2014-Apr-15 04:35 002 1 gusting 4 1.1
2014-Apr-15 04:30 003 3 gusting 4 1.1
2014-Apr-15 04:25 004 2 gusting 3 1.1
2014-Apr-15 04:20 001 0 gusting 3 1.1
2014-Apr-15 04:15 349 1 gusting 4 1.1
2014-Apr-15 04:10 262 0 gusting 4 1.1
2014-Apr-15 04:05 263 0 gusting 5 1.7
2014-Apr-15 04:00 309 0 gusting 5 1.7
2014-Apr-15 03:55 351 1 gusting 3 1.1
2014-Apr-15 03:50 355 1 gusting 3 1.7
2014-Apr-15 03:45 001 2 gusting 3 1.7
2014-Apr-15 03:40 001 1 gusting 3 1.7
2014-Apr-15 03:35 001 1 gusting 3 1.7
2014-Apr-15 03:30 354 2 gusting 3 1.7
2014-Apr-15 03:25 347 1 gusting 4 2.2
2014-Apr-15 03:20 325 0 gusting 4 2.2
2014-Apr-15 03:15 320 2 gusting 4 2.2
2014-Apr-15 03:10 324 1 gusting 3 2.2
2014-Apr-15 03:05 322 1 gusting 4 1.7
2014-Apr-15 03:00 346 1 gusting 4 1.7
2014-Apr-15 02:55 342 0 gusting 4 1.7
2014-Apr-15 02:50 350 1 gusting 4 1.7
2014-Apr-15 02:45 356 1 gusting 3 1.1
2014-Apr-15 02:40 338 0 gusting 3 1.1
2014-Apr-15 02:35 318 1 gusting 3 1.1
2014-Apr-15 02:30 302 0 gusting 3 1.1
2014-Apr-15 02:25 312 1 gusting 3 1.1
2014-Apr-15 02:20 348 1 gusting 2 1.1
2014-Apr-15 02:15 009 1.7
2014-Apr-15 02:10 005 1 gusting 2 1.7
2014-Apr-15 02:05 355 1 gusting 3 1.7
2014-Apr-15 02:00 353 1 gusting 3 1.7
2014-Apr-15 01:55 359 1 gusting 3 1.7
2014-Apr-15 01:50 014 1 gusting 2 1.7
2014-Apr-15 01:45 005 1.7
2014-Apr-15 01:40 357 1 gusting 4 1.7
2014-Apr-15 01:35 355 1 gusting 4 1.7
2014-Apr-15 01:30 345 1 gusting 3 1.7
2014-Apr-15 01:25 338 0 gusting 2 2.2
2014-Apr-15 01:20 319 1 gusting 3 2.2
2014-Apr-15 01:15 329 2.2
2014-Apr-15 01:10 324 2 gusting 3 2.2
2014-Apr-15 01:05 336 2 gusting 3 2.2
2014-Apr-15 01:00 348 2 gusting 4 2.2
2014-Apr-15 00:55 350 2 gusting 4 2.2
2014-Apr-15 00:50 359 1 gusting 4 1.7
2014-Apr-15 00:45 005 1 gusting 3 1.7
2014-Apr-15 00:40 008 1 gusting 3 1.7
2014-Apr-15 00:35 350 0 gusting 2 1.7
2014-Apr-15 00:30 321 0 gusting 3 1.7
2014-Apr-15 00:25 332 0 gusting 3 1.7
2014-Apr-15 00:20 350 0 gusting 3 2.2
2014-Apr-15 00:15 346 1 gusting 3 2.2
2014-Apr-15 00:10 352 1 gusting 3 1.7
2014-Apr-15 00:05 359 1 gusting 3 2.2
2014-Apr-15 00:00 359 1 gusting 3 2.2
2014-Apr-14 23:55 001 1 gusting 3 2.2
2014-Apr-14 23:50 004 1 gusting 3 2.2
2014-Apr-14 23:45 001 1 gusting 3 1.7
2014-Apr-14 23:40 356 2 gusting 3 2.2
2014-Apr-14 23:35 353 1 gusting 3 2.2
2014-Apr-14 23:30 354 1 gusting 3 2.2
2014-Apr-14 23:25 002 1 gusting 4 2.2
2014-Apr-14 23:20 358 2 gusting 4 2.2
2014-Apr-14 23:15 357 2 gusting 4 2.8
2014-Apr-14 23:10 001 2 gusting 4 2.8
2014-Apr-14 23:05 355 2 gusting 5 2.8
2014-Apr-14 23:00 354 2 gusting 5 2.8
2014-Apr-14 22:55 356 1 gusting 3 2.2
2014-Apr-14 22:50 353 3 gusting 3 2.8
2014-Apr-14 22:45 013 1 gusting 3 2.8
2014-Apr-14 22:40 025 1 gusting 3 2.8
2014-Apr-14 22:35 355 1 gusting 3 2.8
2014-Apr-14 22:30 328 2.8
2014-Apr-14 22:25 342 0 gusting 3 3.3
2014-Apr-14 22:20 349 1 gusting 3 2.8
2014-Apr-14 22:15 352 0 gusting 3 2.8
2014-Apr-14 22:10 001 2 gusting 3 3.3
2014-Apr-14 22:05 351 1 gusting 3 3.3
2014-Apr-14 22:00 324 1 gusting 4 3.3